Weather in Kaskalen

Kazakhstan     43°12′08″N   76°37′24″E
temp.,
°C
wind,
m/s
gust,
m/s
humid.,
%
clouds,
%
prec.,
mm/h
press.,
hPa
HPBL,
m
13 april, tue
tue1300:00+12sw225010 0.0 101911
03:00+11ssw22490 0.0 101912
06:00+10sw11500 0.0 102011
09:00+14nw22430 0.0 1021311
12:00+17n3236100 0.0 1020960
15:00+19nne322974 0.0 10201662
18:00+17n543154 0.0 1021547
21:00+12ssw1136100 0.0 102310
14 april, wed
wed1400:00+11sw1138100 0.0 102311
03:00+9wnw2243100 0.0 102230
06:00+6w3551100 0.0 1024106
09:00+8nw335798 0.0 1024364
12:00+12n214421 0.0 1021656
15:00+16ne323554 0.0 10181080
18:00+16ne11355 0.0 1018972
21:00+12ssw224742 0.0 101815
15 april, thu
thu1500:00+11wsw33483 0.0 101733
03:00+9wsw23430 0.0 101733
06:00+8wsw12440 0.0 101614
09:00+12nnw21410 0.0 1016219
12:00+17ne33353 0.0 1015785
15:00+19ne22295 0.0 10131197
18:00+20ene1128100 0.0 10141250
21:00+15sw1140100 0.0 101513
16 april, fri
fri1600:00+13ssw1143100 0.0 101411
03:00+12sw1142100 0.0 101310
06:00+12sw2247100 0.0 101411
09:00+16nw224198 0.0 1014230
12:00+19nnw2230100 0.0 10141063
15:00+21nnw1129100 0.1 10121662
18:00+20s123786 0.4 1012189
21:00+15s336299 2.3 101438
17 april, sat
sat1700:00+13sw467683 5.9 1015124
03:00+13ssw44625 0.4 101439
06:00+11wsw33657 0.4 101435
09:00+16wsw1247100 0.0 1014532
12:00+18n3239100 0.0 10131416
15:00+20n2236100 0.0 10122079
18:00+20s1238100 0.3 10121512
21:00+16ssw1149100 0.0 101314